Time,TemperatureF,DewpointF,PressureIn,WindDirection,WindDirectionDegrees,WindSpeedMPH,WindSpeedGustMPH,Humidity,HourlyPrecipIn,Conditions,Clouds,dailyrainin,SoftwareType,DateUTC
2013-05-02 00:01:00,56.1,42.4,30.40,WSW,242,1.0,3.0,60,0.00,,,0.00,WeatherCatV1.10B1784,2013-05-02 04:01:00,
2013-05-02 00:06:00,56.0,42.7,30.40,WSW,248,2.0,2.0,61,0.00,,,0.00,WeatherCatV1.10B1784,2013-05-02 04:06:00,
2013-05-02 00:11:00,55.9,42.6,30.40,WSW,248,1.0,3.0,61,0.00,,,0.00,WeatherCatV1.10B1784,2013-05-02 04:11:00,
2013-05-02 00:16:00,56.0,42.7,30.40,West,262,0.0,0.0,61,0.00,,,0.00,WeatherCatV1.10B1784,2013-05-02 04:16:00,
2013-05-02 00:21:00,55.8,42.6,30.40,West,262,0.0,1.0,61,0.00,,,0.00,WeatherCatV1.10B1784,2013-05-02 04:21:00,
2013-05-02 00:26:00,55.5,42.7,30.40,West,262,0.0,2.0,62,0.00,,,0.00,WeatherCatV1.10B1784,2013-05-02 04:26:00,
2013-05-02 00:31:00,55.2,42.4,30.40,West,262,0.0,1.0,62,0.00,,,0.00,WeatherCatV1.10B1784,2013-05-02 04:31:00,
2013-05-02 00:36:00,55.0,42.6,30.40,West,262,1.0,1.0,63,0.00,,,0.00,WeatherCatV1.10B1784,2013-05-02 04:36:00,
2013-05-02 00:41:00,54.7,42.8,30.40,West,262,0.0,0.0,64,0.00,,,0.00,WeatherCatV1.10B1784,2013-05-02 04:41:00,
2013-05-02 00:46:00,54.2,42.3,30.40,West,262,0.0,1.0,64,0.00,,,0.00,WeatherCatV1.10B1784,2013-05-02 04:46:00,
2013-05-02 00:51:00,54.1,42.6,30.40,West,262,1.0,3.0,65,0.00,,,0.00,WeatherCatV1.10B1784,2013-05-02 04:51:00,
2013-05-02 00:56:00,54.0,42.5,30.40,West,262,1.0,3.0,65,0.00,,,0.00,WeatherCatV1.10B1784,2013-05-02 04:56:00,
2013-05-02 01:01:00,53.6,42.5,30.40,West,262,1.0,1.0,66,0.00,,,0.00,WeatherCatV1.10B1784,2013-05-02 05:01:00,
2013-05-02 01:06:00,53.4,42.3,30.39,West,262,0.0,0.0,66,0.00,,,0.00,WeatherCatV1.10B1784,2013-05-02 05:06:00,
2013-05-02 01:11:00,53.1,42.4,30.39,West,262,0.0,0.0,67,0.00,,,0.00,WeatherCatV1.10B1784,2013-05-02 05:11:00,
2013-05-02 01:16:00,53.2,42.1,30.39,SW,218,6.0,6.0,66,0.00,,,0.00,WeatherCatV1.10B1784,2013-05-02 05:16:00,
2013-05-02 01:21:00,53.5,42.0,30.39,SW,227,1.0,2.0,65,0.00,,,0.00,WeatherCatV1.10B1784,2013-05-02 05:21:00,
2013-05-02 01:26:00,53.4,41.9,30.39,SW,227,0.0,0.0,65,0.00,,,0.00,WeatherCatV1.10B1784,2013-05-02 05:26:00,
2013-05-02 01:31:00,53.1,42.0,30.39,SW,227,0.0,2.0,66,0.00,,,0.00,WeatherCatV1.10B1784,2013-05-02 05:31:00,
2013-05-02 01:36:00,53.0,41.6,30.39,SW,235,1.0,3.0,65,0.00,,,0.00,WeatherCatV1.10B1784,2013-05-02 05:36:00,
2013-05-02 01:41:00,52.9,41.5,30.38,SW,235,1.0,3.0,65,0.00,,,0.00,WeatherCatV1.10B1784,2013-05-02 05:41:00,
2013-05-02 01:46:00,52.9,41.9,30.38,WSW,240,4.0,4.0,66,0.00,,,0.00,WeatherCatV1.10B1784,2013-05-02 05:46:00,
2013-05-02 01:51:00,53.0,41.9,30.38,WSW,257,3.0,5.0,66,0.00,,,0.00,WeatherCatV1.10B1784,2013-05-02 05:51:00,
2013-05-02 01:56:00,53.2,41.7,30.38,WSW,257,3.0,6.0,65,0.00,,,0.00,WeatherCatV1.10B1784,2013-05-02 05:56:00,
2013-05-02 02:01:00,53.4,41.9,30.38,WSW,257,0.0,5.0,65,0.00,,,0.00,WeatherCatV1.10B1784,2013-05-02 06:01:00,
2013-05-02 02:06:00,53.6,42.1,30.38,WSW,257,4.0,6.0,65,0.00,,,0.00,WeatherCatV1.10B1784,2013-05-02 06:06:00,
2013-05-02 02:11:00,53.7,42.2,30.38,WSW,252,2.0,6.0,65,0.00,,,0.00,WeatherCatV1.10B1784,2013-05-02 06:11:00,
2013-05-02 02:16:00,53.7,41.8,30.38,WNW,286,0.0,13.0,64,0.00,,,0.00,WeatherCatV1.10B1784,2013-05-02 06:16:00,
2013-05-02 02:21:00,53.6,41.7,30.38,WNW,296,2.0,6.0,64,0.00,,,0.00,WeatherCatV1.10B1784,2013-05-02 06:21:00,
2013-05-02 02:26:00,53.6,41.7,30.37,WNW,282,1.0,8.0,64,0.00,,,0.00,WeatherCatV1.10B1784,2013-05-02 06:26:00,
2013-05-02 02:31:00,53.5,41.2,30.37,SW,222,2.0,4.0,63,0.00,,,0.00,WeatherCatV1.10B1784,2013-05-02 06:31:00,
2013-05-02 02:36:00,53.5,41.2,30.37,West,278,0.0,8.0,63,0.00,,,0.00,WeatherCatV1.10B1784,2013-05-02 06:36:00,
2013-05-02 02:41:00,53.4,41.1,30.37,West,267,3.0,6.0,63,0.00,,,0.00,WeatherCatV1.10B1784,2013-05-02 06:41:00,
2013-05-02 02:46:00,53.4,41.1,30.37,West,262,0.0,6.0,63,0.00,,,0.00,WeatherCatV1.10B1784,2013-05-02 06:46:00,
2013-05-02 02:51:00,53.4,41.1,30.37,WSW,250,2.0,9.0,63,0.00,,,0.00,WeatherCatV1.10B1784,2013-05-02 06:51:00,
2013-05-02 02:56:00,53.3,41.0,30.37,WNW,286,2.0,5.0,63,0.00,,,0.00,WeatherCatV1.10B1784,2013-05-02 06:56:00,
2013-05-02 03:01:00,53.3,41.0,30.36,WSW,251,5.0,7.0,63,0.00,,,0.00,WeatherCatV1.10B1784,2013-05-02 07:01:00,
2013-05-02 03:06:00,53.2,40.9,30.36,WSW,257,3.0,6.0,63,0.00,,,0.00,WeatherCatV1.10B1784,2013-05-02 07:06:00,
2013-05-02 03:11:00,53.3,41.0,30.36,West,278,7.0,7.0,63,0.00,,,0.00,WeatherCatV1.10B1784,2013-05-02 07:11:00,
2013-05-02 03:16:00,53.3,41.0,30.36,West,267,1.0,4.0,63,0.00,,,0.00,WeatherCatV1.10B1784,2013-05-02 07:16:00,
2013-05-02 03:21:00,53.3,41.0,30.36,West,277,2.0,5.0,63,0.00,,,0.00,WeatherCatV1.10B1784,2013-05-02 07:21:00,
2013-05-02 03:26:00,53.4,41.1,30.36,WNW,289,7.0,7.0,63,0.00,,,0.00,WeatherCatV1.10B1784,2013-05-02 07:26:00,
2013-05-02 03:31:00,53.6,41.3,30.36,West,273,1.0,2.0,63,0.00,,,0.00,WeatherCatV1.10B1784,2013-05-02 07:31:00,
2013-05-02 03:36:00,53.7,41.0,30.36,WNW,287,10.0,10.0,62,0.00,,,0.00,WeatherCatV1.10B1784,2013-05-02 07:36:00,
2013-05-02 03:41:00,53.8,41.1,30.36,WNW,284,3.0,5.0,62,0.00,,,0.00,WeatherCatV1.10B1784,2013-05-02 07:41:00,
2013-05-02 03:46:00,53.9,40.8,30.36,WNW,290,3.0,4.0,61,0.00,,,0.00,WeatherCatV1.10B1784,2013-05-02 07:46:00,
2013-05-02 03:51:00,54.0,40.9,30.36,WNW,286,2.0,5.0,61,0.00,,,0.00,WeatherCatV1.10B1784,2013-05-02 07:51:00,
2013-05-02 03:56:00,54.0,40.4,30.36,West,267,4.0,6.0,60,0.00,,,0.00,WeatherCatV1.10B1784,2013-05-02 07:56:00,
2013-05-02 04:01:00,53.9,40.3,30.36,West,277,0.0,5.0,60,0.00,,,0.00,WeatherCatV1.10B1784,2013-05-02 08:01:00,
2013-05-02 04:06:00,54.0,40.4,30.36,West,272,3.0,7.0,60,0.00,,,0.00,WeatherCatV1.10B1784,2013-05-02 08:06:00,
2013-05-02 04:11:00,54.0,40.4,30.36,West,267,1.0,5.0,60,0.00,,,0.00,WeatherCatV1.10B1784,2013-05-02 08:11:00,
2013-05-02 04:16:00,53.9,40.3,30.36,West,277,5.0,6.0,60,0.00,,,0.00,WeatherCatV1.10B1784,2013-05-02 08:16:00,
2013-05-02 04:21:00,53.8,40.2,30.36,West,279,0.0,4.0,60,0.00,,,0.00,WeatherCatV1.10B1784,2013-05-02 08:21:00,
2013-05-02 04:26:00,53.7,40.1,30.36,West,279,0.0,3.0,60,0.00,,,0.00,WeatherCatV1.10B1784,2013-05-02 08:26:00,
2013-05-02 04:31:00,53.6,40.5,30.36,West,279,0.0,1.0,61,0.00,,,0.00,WeatherCatV1.10B1784,2013-05-02 08:31:00,
2013-05-02 04:36:00,53.4,40.3,30.36,WNW,284,0.0,0.0,61,0.00,,,0.00,WeatherCatV1.10B1784,2013-05-02 08:36:00,
2013-05-02 04:41:00,53.2,40.5,30.36,WNW,284,0.0,0.0,62,0.00,,,0.00,WeatherCatV1.10B1784,2013-05-02 08:41:00,
2013-05-02 04:46:00,53.1,40.4,30.36,WNW,284,0.0,0.0,62,0.00,,,0.00,WeatherCatV1.10B1784,2013-05-02 08:46:00,
2013-05-02 04:51:00,52.9,40.2,30.36,WNW,284,0.0,2.0,62,0.00,,,0.00,WeatherCatV1.10B1784,2013-05-02 08:51:00,
2013-05-02 04:56:00,52.8,40.6,30.36,WNW,284,0.0,2.0,63,0.00,,,0.00,WeatherCatV1.10B1784,2013-05-02 08:56:00,
2013-05-02 05:01:00,52.8,40.6,30.36,WNW,284,0.0,0.0,63,0.00,,,0.00,WeatherCatV1.10B1784,2013-05-02 09:01:00,
2013-05-02 05:06:00,52.8,40.6,30.36,WNW,284,0.0,0.0,63,0.00,,,0.00,WeatherCatV1.10B1784,2013-05-02 09:06:00,
2013-05-02 05:11:00,52.7,40.5,30.36,WNW,284,1.0,1.0,63,0.00,,,0.00,WeatherCatV1.10B1784,2013-05-02 09:11:00,
2013-05-02 05:16:00,52.4,40.6,30.36,WNW,284,0.0,0.0,64,0.00,,,0.00,WeatherCatV1.10B1784,2013-05-02 09:16:00,
2013-05-02 05:21:00,52.1,40.7,30.36,WNW,284,0.0,0.0,65,0.00,,,0.00,WeatherCatV1.10B1784,2013-05-02 09:21:00,
2013-05-02 05:26:00,51.7,40.7,30.36,WNW,284,0.0,0.0,66,0.00,,,0.00,WeatherCatV1.10B1784,2013-05-02 09:26:00,
2013-05-02 05:31:00,51.1,40.5,30.37,WNW,284,0.0,0.0,67,0.00,,,0.00,WeatherCatV1.10B1784,2013-05-02 09:31:00,
2013-05-02 05:36:00,50.7,40.1,30.37,WNW,284,0.0,0.0,67,0.00,,,0.00,WeatherCatV1.10B1784,2013-05-02 09:36:00,
2013-05-02 05:41:00,50.2,40.1,30.37,WNW,284,0.0,0.0,68,0.00,,,0.00,WeatherCatV1.10B1784,2013-05-02 09:41:00,
2013-05-02 05:46:00,49.7,39.9,30.37,WNW,284,0.0,0.0,69,0.00,,,0.00,WeatherCatV1.10B1784,2013-05-02 09:46:00,
2013-05-02 05:51:00,49.4,40.0,30.37,WNW,284,0.0,0.0,70,0.00,,,0.00,WeatherCatV1.10B1784,2013-05-02 09:51:00,
2013-05-02 05:56:00,49.3,39.9,30.37,WNW,284,0.0,0.0,70,0.00,,,0.00,WeatherCatV1.10B1784,2013-05-02 09:56:00,
2013-05-02 06:01:00,49.3,39.9,30.37,WNW,284,0.0,0.0,70,0.00,,,0.00,WeatherCatV1.10B1784,2013-05-02 10:01:00,
2013-05-02 06:06:00,49.2,40.2,30.37,WNW,284,0.0,0.0,71,0.00,,,0.00,WeatherCatV1.10B1784,2013-05-02 10:06:00,
2013-05-02 06:11:00,49.0,40.0,30.37,WNW,284,0.0,0.0,71,0.00,,,0.00,WeatherCatV1.10B1784,2013-05-02 10:11:00,
2013-05-02 06:16:00,48.9,39.9,30.37,WNW,284,0.0,0.0,71,0.00,,,0.00,WeatherCatV1.10B1784,2013-05-02 10:16:00,
2013-05-02 06:21:00,48.9,40.3,30.37,WNW,284,0.0,0.0,72,0.00,,,0.00,WeatherCatV1.10B1784,2013-05-02 10:21:00,
2013-05-02 06:26:00,49.1,40.1,30.37,WNW,284,0.0,0.0,71,0.00,,,0.00,WeatherCatV1.10B1784,2013-05-02 10:26:00,
2013-05-02 06:31:00,49.2,40.6,30.37,WNW,284,0.0,0.0,72,0.00,,,0.00,WeatherCatV1.10B1784,2013-05-02 10:31:00,
2013-05-02 06:36:00,49.4,40.4,30.37,WNW,284,0.0,0.0,71,0.00,,,0.00,WeatherCatV1.10B1784,2013-05-02 10:36:00,
2013-05-02 06:41:00,49.7,40.7,30.37,WNW,284,0.0,0.0,71,0.00,,,0.00,WeatherCatV1.10B1784,2013-05-02 10:41:00,
2013-05-02 06:46:00,49.9,40.9,30.38,WNW,284,0.0,0.0,71,0.00,,,0.00,WeatherCatV1.10B1784,2013-05-02 10:46:00,
2013-05-02 06:51:00,50.1,41.4,30.38,WNW,284,0.0,0.0,72,0.00,,,0.00,WeatherCatV1.10B1784,2013-05-02 10:51:00,
2013-05-02 06:56:00,50.5,41.1,30.38,WNW,284,0.0,0.0,70,0.00,,,0.00,WeatherCatV1.10B1784,2013-05-02 10:56:00,
2013-05-02 07:01:00,50.9,41.1,30.38,WNW,284,0.0,0.0,69,0.00,,,0.00,WeatherCatV1.10B1784,2013-05-02 11:01:00,
2013-05-02 07:06:00,51.3,41.1,30.38,WNW,284,0.0,0.0,68,0.00,,,0.00,WeatherCatV1.10B1784,2013-05-02 11:06:00,
2013-05-02 07:11:00,51.6,41.4,30.38,WNW,284,0.0,0.0,68,0.00,,,0.00,WeatherCatV1.10B1784,2013-05-02 11:11:00,
2013-05-02 07:16:00,51.9,41.7,30.38,WNW,284,0.0,0.0,68,0.00,,,0.00,WeatherCatV1.10B1784,2013-05-02 11:16:00,
2013-05-02 07:21:00,52.2,42.0,30.38,WNW,284,0.0,0.0,68,0.00,,,0.00,WeatherCatV1.10B1784,2013-05-02 11:21:00,
2013-05-02 07:26:00,52.5,41.9,30.39,WNW,284,0.0,0.0,67,0.00,,,0.00,WeatherCatV1.10B1784,2013-05-02 11:26:00,
2013-05-02 07:31:00,52.9,42.2,30.39,WNW,284,0.0,0.0,67,0.00,,,0.00,WeatherCatV1.10B1784,2013-05-02 11:31:00,
2013-05-02 07:36:00,53.3,42.2,30.39,WNW,284,0.0,0.0,66,0.00,,,0.00,WeatherCatV1.10B1784,2013-05-02 11:36:00,
2013-05-02 07:41:00,53.7,42.6,30.39,WNW,284,0.0,0.0,66,0.00,,,0.00,WeatherCatV1.10B1784,2013-05-02 11:41:00,
2013-05-02 07:46:00,54.1,43.0,30.39,WNW,284,0.0,0.0,66,0.00,,,0.00,WeatherCatV1.10B1784,2013-05-02 11:46:00,
2013-05-02 07:51:00,54.6,43.1,30.39,WNW,284,0.0,0.0,65,0.00,,,0.00,WeatherCatV1.10B1784,2013-05-02 11:51:00,
2013-05-02 07:56:00,55.1,43.5,30.39,WNW,284,0.0,0.0,65,0.00,,,0.00,WeatherCatV1.10B1784,2013-05-02 11:56:00,
2013-05-02 08:01:00,55.5,43.5,30.39,WNW,284,0.0,0.0,64,0.00,,,0.00,WeatherCatV1.10B1784,2013-05-02 12:01:00,
2013-05-02 08:06:00,55.9,43.9,30.39,WNW,284,0.0,0.0,64,0.00,,,0.00,WeatherCatV1.10B1784,2013-05-02 12:06:00,
2013-05-02 08:11:00,56.5,44.1,30.39,WNW,284,0.0,0.0,63,0.00,,,0.00,WeatherCatV1.10B1784,2013-05-02 12:11:00,
2013-05-02 08:16:00,57.0,44.5,30.39,WNW,284,0.0,0.0,63,0.00,,,0.00,WeatherCatV1.10B1784,2013-05-02 12:16:00,
2013-05-02 08:21:00,57.6,44.7,30.39,WNW,284,0.0,0.0,62,0.00,,,0.00,WeatherCatV1.10B1784,2013-05-02 12:21:00,
2013-05-02 08:26:00,58.2,44.8,30.39,WNW,284,0.0,0.0,61,0.00,,,0.00,WeatherCatV1.10B1784,2013-05-02 12:26:00,
2013-05-02 08:31:00,59.3,45.8,30.39,WNW,284,0.0,0.0,61,0.00,,,0.00,WeatherCatV1.10B1784,2013-05-02 12:31:00,
2013-05-02 08:36:00,60.5,45.6,30.39,WNW,284,0.0,2.0,58,0.00,,,0.00,WeatherCatV1.10B1784,2013-05-02 12:36:00,
2013-05-02 08:41:00,61.7,45.8,30.39,WNW,284,0.0,0.0,56,0.00,,,0.00,WeatherCatV1.10B1784,2013-05-02 12:41:00,
2013-05-02 08:46:00,62.7,45.8,30.39,WNW,284,0.0,1.0,54,0.00,,,0.00,WeatherCatV1.10B1784,2013-05-02 12:46:00,
2013-05-02 08:51:00,63.7,46.2,30.39,WNW,284,0.0,0.0,53,0.00,,,0.00,WeatherCatV1.10B1784,2013-05-02 12:51:00,
2013-05-02 08:56:00,64.8,46.8,30.39,WNW,284,0.0,0.0,52,0.00,,,0.00,WeatherCatV1.10B1784,2013-05-02 12:56:00,
2013-05-02 09:01:00,65.2,46.1,30.38,WNW,284,0.0,1.0,50,0.00,,,0.00,WeatherCatV1.10B1784,2013-05-02 13:01:00,
2013-05-02 09:06:00,65.4,46.3,30.38,WNW,284,2.0,5.0,50,0.00,,,0.00,WeatherCatV1.10B1784,2013-05-02 13:06:00,
2013-05-02 09:11:00,65.8,46.6,30.38,WNW,284,2.0,2.0,50,0.00,,,0.00,WeatherCatV1.10B1784,2013-05-02 13:11:00,
2013-05-02 09:16:00,66.1,46.4,30.38,East,94,0.0,6.0,49,0.00,,,0.00,WeatherCatV1.10B1784,2013-05-02 13:16:00,
2013-05-02 09:21:00,66.5,46.7,30.38,ESE,107,2.0,4.0,49,0.00,,,0.00,WeatherCatV1.10B1784,2013-05-02 13:21:00,
2013-05-02 09:26:00,66.7,46.9,30.38,ESE,107,0.0,2.0,49,0.00,,,0.00,WeatherCatV1.10B1784,2013-05-02 13:26:00,
2013-05-02 09:31:00,66.8,45.9,30.38,ESE,107,0.0,0.0,47,0.00,,,0.00,WeatherCatV1.10B1784,2013-05-02 13:31:00,
2013-05-02 09:36:00,67.1,46.2,30.38,ESE,107,0.0,2.0,47,0.00,,,0.00,WeatherCatV1.10B1784,2013-05-02 13:36:00,
2013-05-02 09:41:00,67.4,45.9,30.38,ESE,107,0.0,2.0,46,0.00,,,0.00,WeatherCatV1.10B1784,2013-05-02 13:41:00,
2013-05-02 09:46:00,67.6,44.9,30.38,ESE,107,1.0,3.0,44,0.00,,,0.00,WeatherCatV1.10B1784,2013-05-02 13:46:00,
2013-05-02 09:51:00,68.2,44.8,30.38,SE,134,0.0,5.0,43,0.00,,,0.00,WeatherCatV1.10B1784,2013-05-02 13:51:00,
2013-05-02 09:52:00,68.4,45.0,30.38,SE,134,0.0,1.0,43,0.00,,,0.00,WeatherCatV1.10B1784,2013-05-02 13:52:00,
2013-05-02 09:57:00,69.0,44.3,30.38,ESE,108,2.0,4.0,41,0.00,,,0.00,WeatherCatV1.10B1784,2013-05-02 13:57:00,
2013-05-02 10:02:00,69.4,44.0,30.38,ESE,107,3.0,3.0,40,0.00,,,0.00,WeatherCatV1.10B1784,2013-05-02 14:02:00,
2013-05-02 10:07:00,69.8,43.7,30.38,ESE,108,2.0,2.0,39,0.00,,,0.00,WeatherCatV1.10B1784,2013-05-02 14:07:00,
2013-05-02 10:12:00,70.3,44.2,30.38,ESE,108,0.0,1.0,39,0.00,,,0.00,WeatherCatV1.10B1784,2013-05-02 14:12:00,
2013-05-02 10:17:00,70.4,44.2,30.38,ESE,123,0.0,5.0,39,0.00,,,0.00,WeatherCatV1.10B1784,2013-05-02 14:17:00,
2013-05-02 10:22:00,70.4,43.6,30.38,ESE,113,2.0,3.0,38,0.00,,,0.00,WeatherCatV1.10B1784,2013-05-02 14:22:00,
2013-05-02 10:27:00,70.3,44.2,30.38,ESE,119,0.0,5.0,39,0.00,,,0.00,WeatherCatV1.10B1784,2013-05-02 14:27:00,
2013-05-02 10:32:00,70.8,43.2,30.38,ESE,119,0.0,4.0,37,0.00,,,0.00,WeatherCatV1.10B1784,2013-05-02 14:32:00,
2013-05-02 10:37:00,71.7,43.3,30.37,SE,125,0.0,2.0,36,0.00,,,0.00,WeatherCatV1.10B1784,2013-05-02 14:37:00,
2013-05-02 10:42:00,72.1,41.4,30.37,SE,125,1.0,1.0,33,0.00,,,0.00,WeatherCatV1.10B1784,2013-05-02 14:42:00,
2013-05-02 10:47:00,72.1,41.4,30.37,NNE,26,1.0,1.0,33,0.00,,,0.00,WeatherCatV1.10B1784,2013-05-02 14:47:00,
2013-05-02 10:52:00,72.5,41.7,30.37,NNE,12,0.0,4.0,33,0.00,,,0.00,WeatherCatV1.10B1784,2013-05-02 14:52:00,
2013-05-02 10:57:00,72.9,40.5,30.37,NNE,13,5.0,5.0,31,0.00,,,0.00,WeatherCatV1.10B1784,2013-05-02 14:57:00,
2013-05-02 11:02:00,72.5,39.3,30.37,East,98,2.0,4.0,30,0.00,,,0.00,WeatherCatV1.10B1784,2013-05-02 15:02:00,
2013-05-02 11:07:00,72.8,40.4,30.37,ESE,109,0.0,3.0,31,0.00,,,0.00,WeatherCatV1.10B1784,2013-05-02 15:07:00,
2013-05-02 11:12:00,73.0,38.9,30.36,ESE,109,0.0,3.0,29,0.00,,,0.00,WeatherCatV1.10B1784,2013-05-02 15:12:00,
2013-05-02 11:17:00,73.1,40.7,30.36,ESE,109,0.0,4.0,31,0.00,,,0.00,WeatherCatV1.10B1784,2013-05-02 15:17:00,
2013-05-02 11:22:00,73.9,41.3,30.36,SSE,156,0.0,5.0,31,0.00,,,0.00,WeatherCatV1.10B1784,2013-05-02 15:22:00,
2013-05-02 11:27:00,73.5,38.4,30.36,ESE,115,1.0,3.0,28,0.00,,,0.00,WeatherCatV1.10B1784,2013-05-02 15:27:00,
2013-05-02 11:32:00,73.6,40.2,30.36,ESE,111,0.0,1.0,30,0.00,,,0.00,WeatherCatV1.10B1784,2013-05-02 15:32:00,
2013-05-02 11:37:00,74.0,39.7,30.35,ESE,117,1.0,3.0,29,0.00,,,0.00,WeatherCatV1.10B1784,2013-05-02 15:37:00,
2013-05-02 11:42:00,74.4,37.3,30.35,ESE,115,0.0,2.0,26,0.00,,,0.00,WeatherCatV1.10B1784,2013-05-02 15:42:00,
2013-05-02 11:47:00,74.3,38.1,30.35,ESE,115,0.0,1.0,27,0.00,,,0.00,WeatherCatV1.10B1784,2013-05-02 15:47:00,
2013-05-02 11:52:00,74.3,37.2,30.34,East,88,2.0,2.0,26,0.00,,,0.00,WeatherCatV1.10B1784,2013-05-02 15:52:00,
2013-05-02 11:57:00,74.4,39.2,30.34,East,95,2.0,3.0,28,0.00,,,0.00,WeatherCatV1.10B1784,2013-05-02 15:57:00,
2013-05-02 12:02:00,75.3,39.0,30.34,SE,131,0.0,6.0,27,0.00,,,0.00,WeatherCatV1.10B1784,2013-05-02 16:02:00,
2013-05-02 12:07:00,75.7,40.3,30.33,East,96,1.0,3.0,28,0.00,,,0.00,WeatherCatV1.10B1784,2013-05-02 16:07:00,
2013-05-02 12:12:00,76.0,40.5,30.33,SE,134,0.0,4.0,28,0.00,,,0.00,WeatherCatV1.10B1784,2013-05-02 16:12:00,
2013-05-02 12:17:00,76.3,38.9,30.33,ESE,119,0.0,4.0,26,0.00,,,0.00,WeatherCatV1.10B1784,2013-05-02 16:17:00,
2013-05-02 12:22:00,76.3,40.8,30.33,ESE,121,2.0,4.0,28,0.00,,,0.00,WeatherCatV1.10B1784,2013-05-02 16:22:00,
2013-05-02 12:27:00,76.5,39.0,30.33,ESE,117,0.0,4.0,26,0.00,,,0.00,WeatherCatV1.10B1784,2013-05-02 16:27:00,
2013-05-02 12:32:00,76.7,40.2,30.33,SE,143,0.0,7.0,27,0.00,,,0.00,WeatherCatV1.10B1784,2013-05-02 16:32:00,
2013-05-02 12:37:00,77.2,39.6,30.33,SSE,148,7.0,8.0,26,0.00,,,0.00,WeatherCatV1.10B1784,2013-05-02 16:37:00,
2013-05-02 12:42:00,77.6,40.0,30.32,SSE,159,2.0,4.0,26,0.00,,,0.00,WeatherCatV1.10B1784,2013-05-02 16:42:00,
2013-05-02 12:47:00,77.8,38.1,30.32,East,89,0.0,2.0,24,0.00,,,0.00,WeatherCatV1.10B1784,2013-05-02 16:47:00,
2013-05-02 12:52:00,78.0,42.2,30.32,SSE,156,2.0,5.0,28,0.00,,,0.00,WeatherCatV1.10B1784,2013-05-02 16:52:00,
2013-05-02 12:57:00,78.3,39.6,30.32,East,92,0.0,4.0,25,0.00,,,0.00,WeatherCatV1.10B1784,2013-05-02 16:57:00,
2013-05-02 13:02:00,77.2,39.6,30.32,NNE,26,1.0,4.0,26,0.00,,,0.00,WeatherCatV1.10B1784,2013-05-02 17:02:00,
2013-05-02 13:07:00,76.9,39.4,30.32,NE,51,0.0,1.0,26,0.00,,,0.00,WeatherCatV1.10B1784,2013-05-02 17:07:00,
2013-05-02 13:12:00,77.7,40.1,30.31,ESE,121,3.0,3.0,26,0.00,,,0.00,WeatherCatV1.10B1784,2013-05-02 17:12:00,
2013-05-02 13:17:00,77.7,39.1,30.31,ENE,63,0.0,3.0,25,0.00,,,0.00,WeatherCatV1.10B1784,2013-05-02 17:17:00,
2013-05-02 13:22:00,78.1,40.4,30.31,ENE,68,0.0,2.0,26,0.00,,,0.00,WeatherCatV1.10B1784,2013-05-02 17:22:00,
2013-05-02 13:27:00,78.7,38.9,30.31,ESE,102,0.0,2.0,24,0.00,,,0.00,WeatherCatV1.10B1784,2013-05-02 17:27:00,
2013-05-02 13:32:00,79.2,41.3,30.31,South,180,3.0,4.0,26,0.00,,,0.00,WeatherCatV1.10B1784,2013-05-02 17:32:00,
2013-05-02 13:37:00,79.3,40.4,30.31,ENE,62,5.0,6.0,25,0.00,,,0.00,WeatherCatV1.10B1784,2013-05-02 17:37:00,
2013-05-02 13:42:00,79.7,39.7,30.31,SE,136,4.0,8.0,24,0.00,,,0.00,WeatherCatV1.10B1784,2013-05-02 17:42:00,
2013-05-02 13:47:00,79.9,40.9,30.31,ESE,119,3.0,6.0,25,0.00,,,0.00,WeatherCatV1.10B1784,2013-05-02 17:47:00,
2013-05-02 13:52:00,80.0,41.0,30.30,SE,142,3.0,8.0,25,0.00,,,0.00,WeatherCatV1.10B1784,2013-05-02 17:52:00,
2013-05-02 13:57:00,80.3,41.2,30.30,East,82,2.0,6.0,25,0.00,,,0.00,WeatherCatV1.10B1784,2013-05-02 17:57:00,
2013-05-02 14:02:00,80.5,40.4,30.30,SE,129,0.0,9.0,24,0.00,,,0.00,WeatherCatV1.10B1784,2013-05-02 18:02:00,
2013-05-02 14:07:00,80.2,39.0,30.30,ESE,109,0.0,3.0,23,0.00,,,0.00,WeatherCatV1.10B1784,2013-05-02 18:07:00,
2013-05-02 14:12:00,80.2,42.2,30.30,ESE,115,0.0,0.0,26,0.00,,,0.00,WeatherCatV1.10B1784,2013-05-02 18:12:00,
2013-05-02 14:17:00,80.9,39.6,30.29,East,92,2.0,2.0,23,0.00,,,0.00,WeatherCatV1.10B1784,2013-05-02 18:17:00,
2013-05-02 14:22:00,81.1,40.9,30.29,ESE,121,0.0,1.0,24,0.00,,,0.00,WeatherCatV1.10B1784,2013-05-02 18:22:00,
2013-05-02 14:27:00,80.2,40.1,30.29,NE,56,2.0,5.0,24,0.00,,,0.00,WeatherCatV1.10B1784,2013-05-02 18:27:00,
2013-05-02 14:32:00,79.9,39.9,30.29,SSE,147,2.0,5.0,24,0.00,,,0.00,WeatherCatV1.10B1784,2013-05-02 18:32:00,
2013-05-02 14:37:00,80.8,39.5,30.29,SSE,155,2.0,6.0,23,0.00,,,0.00,WeatherCatV1.10B1784,2013-05-02 18:37:00,
2013-05-02 14:42:00,81.1,38.6,30.29,ESE,104,3.0,3.0,22,0.00,,,0.00,WeatherCatV1.10B1784,2013-05-02 18:42:00,
2013-05-02 14:47:00,80.5,38.1,30.29,NNE,19,2.0,4.0,22,0.00,,,0.00,WeatherCatV1.10B1784,2013-05-02 18:47:00,
2013-05-02 14:52:00,80.1,41.1,30.29,SE,125,6.0,10.0,25,0.00,,,0.00,WeatherCatV1.10B1784,2013-05-02 18:52:00,
2013-05-02 14:57:00,80.1,38.9,30.28,ENE,75,0.0,11.0,23,0.00,,,0.00,WeatherCatV1.10B1784,2013-05-02 18:57:00,
2013-05-02 15:02:00,80.4,40.3,30.29,East,90,0.0,4.0,24,0.00,,,0.00,WeatherCatV1.10B1784,2013-05-02 19:02:00,
2013-05-02 15:07:00,80.5,41.4,30.28,ESE,109,5.0,6.0,25,0.00,,,0.00,WeatherCatV1.10B1784,2013-05-02 19:07:00,
2013-05-02 15:12:00,81.0,40.8,30.28,ESE,119,6.0,8.0,24,0.00,,,0.00,WeatherCatV1.10B1784,2013-05-02 19:12:00,
2013-05-02 15:17:00,81.2,41.0,30.28,SE,131,0.0,5.0,24,0.00,,,0.00,WeatherCatV1.10B1784,2013-05-02 19:17:00,
2013-05-02 15:22:00,81.2,41.0,30.28,SSE,168,3.0,5.0,24,0.00,,,0.00,WeatherCatV1.10B1784,2013-05-02 19:22:00,
2013-05-02 15:27:00,81.1,39.8,30.28,ESE,118,0.0,7.0,23,0.00,,,0.00,WeatherCatV1.10B1784,2013-05-02 19:27:00,
2013-05-02 15:32:00,81.5,40.1,30.28,SSE,159,4.0,6.0,23,0.00,,,0.00,WeatherCatV1.10B1784,2013-05-02 19:32:00,
2013-05-02 15:37:00,81.4,40.0,30.27,SSE,148,3.0,7.0,23,0.00,,,0.00,WeatherCatV1.10B1784,2013-05-02 19:37:00,
2013-05-02 15:42:00,81.0,38.5,30.27,ENE,73,0.0,3.0,22,0.00,,,0.00,WeatherCatV1.10B1784,2013-05-02 19:42:00,
2013-05-02 15:47:00,80.7,39.4,30.27,NE,46,0.0,3.0,23,0.00,,,0.00,WeatherCatV1.10B1784,2013-05-02 19:47:00,
2013-05-02 15:52:00,79.9,38.8,30.27,East,90,1.0,7.0,23,0.00,,,0.00,WeatherCatV1.10B1784,2013-05-02 19:52:00,
2013-05-02 15:58:00,79.0,38.0,30.27,NE,47,0.0,8.0,23,0.00,,,0.00,WeatherCatV1.10B1784,2013-05-02 19:58:00,
2013-05-02 16:03:00,78.7,39.9,30.27,ENE,59,4.0,7.0,25,0.00,,,0.00,WeatherCatV1.10B1784,2013-05-02 20:03:00,
2013-05-02 16:08:00,78.7,38.9,30.27,NE,48,0.0,10.0,24,0.00,,,0.00,WeatherCatV1.10B1784,2013-05-02 20:08:00,
2013-05-02 16:13:00,79.3,40.4,30.27,SE,137,8.0,9.0,25,0.00,,,0.00,WeatherCatV1.10B1784,2013-05-02 20:13:00,
2013-05-02 16:18:00,78.5,40.7,30.27,SE,137,3.0,4.0,26,0.00,,,0.00,WeatherCatV1.10B1784,2013-05-02 20:18:00,
2013-05-02 16:23:00,77.4,40.8,30.27,East,85,7.0,13.0,27,0.00,,,0.00,WeatherCatV1.10B1784,2013-05-02 20:23:00,
2013-05-02 16:28:00,75.8,40.4,30.28,East,86,3.0,12.0,28,0.00,,,0.00,WeatherCatV1.10B1784,2013-05-02 20:28:00,
2013-05-02 16:33:00,74.9,40.5,30.28,SE,133,2.0,12.0,29,0.00,,,0.00,WeatherCatV1.10B1784,2013-05-02 20:33:00,
2013-05-02 16:38:00,75.0,40.6,30.28,ENE,77,2.0,12.0,29,0.00,,,0.00,WeatherCatV1.10B1784,2013-05-02 20:38:00,
2013-05-02 16:43:00,75.0,40.6,30.29,ESE,111,2.0,12.0,29,0.00,,,0.00,WeatherCatV1.10B1784,2013-05-02 20:43:00,
2013-05-02 16:48:00,74.2,39.9,30.29,East,88,3.0,14.0,29,0.00,,,0.00,WeatherCatV1.10B1784,2013-05-02 20:48:00,
2013-05-02 16:53:00,74.0,40.6,30.30,NE,34,1.0,8.0,30,0.00,,,0.00,WeatherCatV1.10B1784,2013-05-02 20:53:00,
2013-05-02 16:58:00,73.5,41.8,30.30,East,87,4.0,13.0,32,0.00,,,0.00,WeatherCatV1.10B1784,2013-05-02 20:58:00,
2013-05-02 17:03:00,72.6,41.8,30.31,NE,42,1.0,12.0,33,0.00,,,0.00,WeatherCatV1.10B1784,2013-05-02 21:03:00,
2013-05-02 17:08:00,71.7,41.0,30.31,ESE,104,4.0,12.0,33,0.00,,,0.00,WeatherCatV1.10B1784,2013-05-02 21:08:00,
2013-05-02 17:13:00,71.0,40.4,30.31,ENE,70,10.0,14.0,33,0.00,,,0.00,WeatherCatV1.10B1784,2013-05-02 21:13:00,
2013-05-02 17:18:00,70.0,38.8,30.32,ENE,77,1.0,14.0,32,0.00,,,0.00,WeatherCatV1.10B1784,2013-05-02 21:18:00,
2013-05-02 17:23:00,69.2,39.6,30.32,SE,125,10.0,10.0,34,0.00,,,0.00,WeatherCatV1.10B1784,2013-05-02 21:23:00,
2013-05-02 17:28:00,68.2,40.9,30.32,ENE,65,7.0,8.0,37,0.00,,,0.00,WeatherCatV1.10B1784,2013-05-02 21:28:00,
2013-05-02 17:33:00,67.7,43.1,30.33,ENE,71,0.0,4.0,41,0.00,,,0.00,WeatherCatV1.10B1784,2013-05-02 21:33:00,
2013-05-02 17:38:00,66.8,45.3,30.33,NNE,23,4.0,5.0,46,0.00,,,0.00,WeatherCatV1.10B1784,2013-05-02 21:38:00,
2013-05-02 17:43:00,65.1,44.4,30.33,ENE,57,0.0,5.0,47,0.00,,,0.00,WeatherCatV1.10B1784,2013-05-02 21:43:00,
2013-05-02 17:48:00,64.0,43.9,30.34,ENE,57,0.0,4.0,48,0.00,,,0.00,WeatherCatV1.10B1784,2013-05-02 21:48:00,
2013-05-02 17:53:00,63.1,44.2,30.34,ENE,63,1.0,7.0,50,0.00,,,0.00,WeatherCatV1.10B1784,2013-05-02 21:53:00,
2013-05-02 17:58:00,62.1,43.8,30.35,NE,45,1.0,8.0,51,0.00,,,0.00,WeatherCatV1.10B1784,2013-05-02 21:58:00,
2013-05-02 18:03:00,60.9,43.7,30.35,NNE,32,8.0,10.0,53,0.00,,,0.00,WeatherCatV1.10B1784,2013-05-02 22:03:00,
2013-05-02 18:08:00,60.1,43.4,30.35,East,98,2.0,5.0,54,0.00,,,0.00,WeatherCatV1.10B1784,2013-05-02 22:08:00,
2013-05-02 18:13:00,59.5,42.8,30.35,NE,38,2.0,5.0,54,0.00,,,0.00,WeatherCatV1.10B1784,2013-05-02 22:13:00,
2013-05-02 18:17:00,59.3,43.1,30.36,NE,45,3.0,4.0,55,0.00,,,0.00,WeatherCatV1.10B1784,2013-05-02 22:17:00,
2013-05-02 18:22:00,58.9,42.8,30.36,NE,45,3.0,7.0,55,0.00,,,0.00,WeatherCatV1.10B1784,2013-05-02 22:22:00,
2013-05-02 18:27:00,58.1,42.5,30.36,ENE,59,1.0,10.0,56,0.00,,,0.00,WeatherCatV1.10B1784,2013-05-02 22:27:00,
2013-05-02 18:32:00,57.4,42.3,30.36,NNE,26,5.0,5.0,57,0.00,,,0.00,WeatherCatV1.10B1784,2013-05-02 22:32:00,
2013-05-02 18:37:00,57.0,42.4,30.37,NE,44,2.0,4.0,58,0.00,,,0.00,WeatherCatV1.10B1784,2013-05-02 22:37:00,
2013-05-02 18:42:00,56.4,42.7,30.37,NE,46,2.0,7.0,60,0.00,,,0.00,WeatherCatV1.10B1784,2013-05-02 22:42:00,
2013-05-02 18:47:00,55.9,42.2,30.37,ENE,58,1.0,7.0,60,0.00,,,0.00,WeatherCatV1.10B1784,2013-05-02 22:47:00,
2013-05-02 18:52:00,55.6,41.9,30.38,NE,48,2.0,6.0,60,0.00,,,0.00,WeatherCatV1.10B1784,2013-05-02 22:52:00,
2013-05-02 18:57:00,55.3,42.1,30.38,NE,34,0.0,2.0,61,0.00,,,0.00,WeatherCatV1.10B1784,2013-05-02 22:57:00,
2013-05-02 19:02:00,55.3,42.1,30.38,NE,38,1.0,2.0,61,0.00,,,0.00,WeatherCatV1.10B1784,2013-05-02 23:02:00,
2013-05-02 19:07:00,55.1,41.9,30.39,NE,38,0.0,4.0,61,0.00,,,0.00,WeatherCatV1.10B1784,2013-05-02 23:07:00,
2013-05-02 19:12:00,54.7,41.9,30.39,NE,42,2.0,5.0,62,0.00,,,0.00,WeatherCatV1.10B1784,2013-05-02 23:12:00,
2013-05-02 19:17:00,54.2,41.9,30.39,NE,52,5.0,5.0,63,0.00,,,0.00,WeatherCatV1.10B1784,2013-05-02 23:17:00,
2013-05-02 19:22:00,53.5,41.2,30.39,ENE,60,3.0,4.0,63,0.00,,,0.00,WeatherCatV1.10B1784,2013-05-02 23:22:00,
2013-05-02 19:27:00,53.2,40.5,30.40,ENE,57,0.0,2.0,62,0.00,,,0.00,WeatherCatV1.10B1784,2013-05-02 23:27:00,
2013-05-02 19:32:00,53.0,40.3,30.39,NNE,25,5.0,10.0,62,0.00,,,0.00,WeatherCatV1.10B1784,2013-05-02 23:32:00,
2013-05-02 19:37:00,52.8,39.7,30.40,NNE,15,0.0,5.0,61,0.00,,,0.00,WeatherCatV1.10B1784,2013-05-02 23:37:00,
2013-05-02 19:42:00,52.6,39.1,30.40,NNE,20,5.0,8.0,60,0.00,,,0.00,WeatherCatV1.10B1784,2013-05-02 23:42:00,
2013-05-02 19:47:00,52.3,38.8,30.40,NE,55,5.0,5.0,60,0.00,,,0.00,WeatherCatV1.10B1784,2013-05-02 23:47:00,
2013-05-02 19:52:00,52.2,38.7,30.41,NE,48,1.0,3.0,60,0.00,,,0.00,WeatherCatV1.10B1784,2013-05-02 23:52:00,
2013-05-02 19:57:00,52.0,38.5,30.41,ENE,71,4.0,5.0,60,0.00,,,0.00,WeatherCatV1.10B1784,2013-05-02 23:57:00,
2013-05-02 20:02:00,52.0,38.1,30.41,SSE,148,0.0,0.0,59,0.00,,,0.00,WeatherCatV1.10B1784,2013-05-03 00:02:00,
2013-05-02 20:07:00,52.0,38.5,30.42,NE,34,0.0,1.0,60,0.00,,,0.00,WeatherCatV1.10B1784,2013-05-03 00:07:00,
2013-05-02 20:12:00,51.7,38.3,30.42,NNE,26,10.0,10.0,60,0.00,,,0.00,WeatherCatV1.10B1784,2013-05-03 00:12:00,
2013-05-02 20:17:00,51.3,37.0,30.42,ENE,61,5.0,6.0,58,0.00,,,0.00,WeatherCatV1.10B1784,2013-05-03 00:17:00,
2013-05-02 20:22:00,50.9,37.1,30.42,NNE,17,2.0,4.0,59,0.00,,,0.00,WeatherCatV1.10B1784,2013-05-03 00:22:00,
2013-05-02 20:27:00,50.7,36.9,30.43,ENE,74,2.0,3.0,59,0.00,,,0.00,WeatherCatV1.10B1784,2013-05-03 00:27:00,
2013-05-02 20:32:00,50.6,36.4,30.43,North,3,3.0,3.0,58,0.00,,,0.00,WeatherCatV1.10B1784,2013-05-03 00:32:00,
2013-05-02 20:37:00,50.6,35.9,30.43,ENE,68,0.0,4.0,57,0.00,,,0.00,WeatherCatV1.10B1784,2013-05-03 00:37:00,
2013-05-02 20:42:00,50.5,35.8,30.43,ENE,67,0.0,4.0,57,0.00,,,0.00,WeatherCatV1.10B1784,2013-05-03 00:42:00,
2013-05-02 20:47:00,50.4,36.2,30.43,ENE,71,0.0,3.0,58,0.00,,,0.00,WeatherCatV1.10B1784,2013-05-03 00:47:00,
2013-05-02 20:52:00,50.3,35.2,30.43,East,83,1.0,2.0,56,0.00,,,0.00,WeatherCatV1.10B1784,2013-05-03 00:52:00,
2013-05-02 20:57:00,50.2,35.1,30.43,East,101,0.0,2.0,56,0.00,,,0.00,WeatherCatV1.10B1784,2013-05-03 00:57:00,
2013-05-02 21:02:00,50.1,35.5,30.43,ESE,123,6.0,6.0,57,0.00,,,0.00,WeatherCatV1.10B1784,2013-05-03 01:02:00,
2013-05-02 21:07:00,50.0,35.4,30.43,NE,46,2.0,2.0,57,0.00,,,0.00,WeatherCatV1.10B1784,2013-05-03 01:07:00,
2013-05-02 21:12:00,50.1,35.9,30.44,NE,55,0.0,2.0,58,0.00,,,0.00,WeatherCatV1.10B1784,2013-05-03 01:12:00,
2013-05-02 21:17:00,49.9,36.1,30.44,ENE,64,0.0,1.0,59,0.00,,,0.00,WeatherCatV1.10B1784,2013-05-03 01:17:00,
2013-05-02 21:22:00,49.9,36.1,30.44,ENE,69,3.0,4.0,59,0.00,,,0.00,WeatherCatV1.10B1784,2013-05-03 01:22:00,
2013-05-02 21:27:00,49.9,36.6,30.43,ENE,73,0.0,1.0,60,0.00,,,0.00,WeatherCatV1.10B1784,2013-05-03 01:27:00,
2013-05-02 21:32:00,49.9,36.6,30.44,ENE,73,0.0,1.0,60,0.00,,,0.00,WeatherCatV1.10B1784,2013-05-03 01:32:00,
2013-05-02 21:37:00,49.8,36.5,30.44,ENE,76,0.0,4.0,60,0.00,,,0.00,WeatherCatV1.10B1784,2013-05-03 01:37:00,
2013-05-02 21:42:00,49.7,36.8,30.43,ENE,76,0.0,0.0,61,0.00,,,0.00,WeatherCatV1.10B1784,2013-05-03 01:42:00,
2013-05-02 21:47:00,49.7,36.8,30.43,ENE,76,0.0,0.0,61,0.00,,,0.00,WeatherCatV1.10B1784,2013-05-03 01:47:00,
2013-05-02 21:52:00,49.6,36.7,30.43,ENE,76,0.0,0.0,61,0.00,,,0.00,WeatherCatV1.10B1784,2013-05-03 01:52:00,
2013-05-02 21:57:00,49.6,37.1,30.43,ENE,76,0.0,0.0,62,0.00,,,0.00,WeatherCatV1.10B1784,2013-05-03 01:57:00,
2013-05-02 22:02:00,49.6,37.1,30.43,ENE,76,0.0,0.0,62,0.00,,,0.00,WeatherCatV1.10B1784,2013-05-03 02:02:00,
2013-05-02 22:07:00,49.5,37.0,30.43,ENE,76,0.0,0.0,62,0.00,,,0.00,WeatherCatV1.10B1784,2013-05-03 02:07:00,
2013-05-02 22:12:00,49.4,36.9,30.43,ENE,76,0.0,0.0,62,0.00,,,0.00,WeatherCatV1.10B1784,2013-05-03 02:12:00,
2013-05-02 22:17:00,49.4,36.9,30.43,ENE,76,0.0,0.0,62,0.00,,,0.00,WeatherCatV1.10B1784,2013-05-03 02:17:00,
2013-05-02 22:22:00,49.4,36.9,30.43,ENE,76,0.0,0.0,62,0.00,,,0.00,WeatherCatV1.10B1784,2013-05-03 02:22:00,
2013-05-02 22:27:00,49.5,37.4,30.43,ENE,76,0.0,0.0,63,0.00,,,0.00,WeatherCatV1.10B1784,2013-05-03 02:27:00,
2013-05-02 22:32:00,49.5,37.4,30.44,ENE,76,0.0,0.0,63,0.00,,,0.00,WeatherCatV1.10B1784,2013-05-03 02:32:00,
2013-05-02 22:37:00,49.6,37.1,30.44,ENE,76,0.0,0.0,62,0.00,,,0.00,WeatherCatV1.10B1784,2013-05-03 02:37:00,
2013-05-02 22:42:00,49.5,37.4,30.43,ENE,76,0.0,1.0,63,0.00,,,0.00,WeatherCatV1.10B1784,2013-05-03 02:42:00,
2013-05-02 22:47:00,49.4,37.3,30.43,ENE,76,0.0,0.0,63,0.00,,,0.00,WeatherCatV1.10B1784,2013-05-03 02:47:00,
2013-05-02 22:52:00,49.3,37.2,30.43,ENE,76,0.0,0.0,63,0.00,,,0.00,WeatherCatV1.10B1784,2013-05-03 02:52:00,
2013-05-02 22:57:00,49.3,37.6,30.43,ENE,76,0.0,0.0,64,0.00,,,0.00,WeatherCatV1.10B1784,2013-05-03 02:57:00,
2013-05-02 23:02:00,49.1,37.8,30.43,ENE,76,0.0,0.0,65,0.00,,,0.00,WeatherCatV1.10B1784,2013-05-03 03:02:00,
2013-05-02 23:07:00,49.0,37.4,30.44,ENE,76,0.0,0.0,64,0.00,,,0.00,WeatherCatV1.10B1784,2013-05-03 03:07:00,
2013-05-02 23:12:00,48.8,37.2,30.43,ENE,76,0.0,0.0,64,0.00,,,0.00,WeatherCatV1.10B1784,2013-05-03 03:12:00,
2013-05-02 23:17:00,48.6,37.0,30.43,ENE,76,0.0,0.0,64,0.00,,,0.00,WeatherCatV1.10B1784,2013-05-03 03:17:00,
2013-05-02 23:22:00,48.4,37.2,30.43,ENE,76,0.0,0.0,65,0.00,,,0.00,WeatherCatV1.10B1784,2013-05-03 03:22:00,
2013-05-02 23:27:00,48.2,37.0,30.44,ENE,76,0.0,0.0,65,0.00,,,0.00,WeatherCatV1.10B1784,2013-05-03 03:27:00,
2013-05-02 23:32:00,48.0,37.2,30.44,ENE,76,0.0,0.0,66,0.00,,,0.00,WeatherCatV1.10B1784,2013-05-03 03:32:00,
2013-05-02 23:37:00,47.8,37.8,30.44,ENE,76,0.0,0.0,68,0.00,,,0.00,WeatherCatV1.10B1784,2013-05-03 03:37:00,
2013-05-02 23:42:00,47.7,38.0,30.44,ENE,76,0.0,0.0,69,0.00,,,0.00,WeatherCatV1.10B1784,2013-05-03 03:42:00,
2013-05-02 23:47:00,47.6,37.2,30.44,ENE,76,0.0,0.0,67,0.00,,,0.00,WeatherCatV1.10B1784,2013-05-03 03:47:00,
2013-05-02 23:52:00,47.4,37.0,30.44,ENE,76,0.0,0.0,67,0.00,,,0.00,WeatherCatV1.10B1784,2013-05-03 03:52:00,
2013-05-02 23:57:00,47.2,37.2,30.44,ENE,76,0.0,0.0,68,0.00,,,0.00,WeatherCatV1.10B1784,2013-05-03 03:57:00,